Погода в Лиски

Погода в Лиски : погода сейчас, прогноз погоды и архив. Всё, что Вы хотите узнать о погоде в Лиски!

Поиск расширенной информации на нашем сайте:

Другие новости

Новости СМИ2

Главная страница сайта

Новости сайта

02.10.2013

Напоминаем, что на нашем новом сайте вы можете получить высокодетализированные прогнозы погоды по пунктам России, СНГ и мира (включающие важные для авиации метеовеличины, такие как направление и скорость ветра, видимость, явления погоды, количество и форма облачности, нижняя и верхняя граница облачности), а также ознакомиться с разнообразными материалами по авиационной метеорологии и подборкой полезных ссылок на эту тему.

Сайт Метеоцентр.Азия посвящён разработке технологий оптимизации авиаметеорологического обслуживания, включая проектирование и перспективное создание нескольких автоматизированных авиаметеорологических систем:
- система выпуска высокодетальных прогностических карт явлений погоды для нижнего воздушного пространства по России и ближнему зарубежью;
- система верификации прогнозов TAF (выпускаемых синоптиками официальных АМСГ РФ и ближнего зарубежья) и AUTOTAF (выпускаемых сайтом Метеоцентр.Азия) - выявление ошибок, онлайн-сопоставление с фактической погодой METAR, автоматическое внесение коррективов в прогнозы при резком отклонении фактической погоды от прогноза, подсчёт оправдываемости прогнозов по элементам и в целом;
- система обработки, анализа и отображения авиаметеорологической информации для применения провайдерами метеорологической информации.

Рекомендуем: У нас. http://wwprint.ru/ полноцветная печать

Погода в Лиски - сегодня

Время (UTC), дата Ветер
(°,м/с) 
Видим.   Явления Облачность Т
(°С)
Тd
(°С)
f(%) Тe
(°С)
Pmin
(гПа)
dP
(гПа)
Po
(мм)
O2
(г/м3)
Тmin Tmax R s Состояние
почвы
06 17.02.17 тихо ()   10 км    9/9 800 м 
[Sc]
-16.3 -18.2 85 -16  1029.5  -0.8  760  327  -21.5         
09 17.02.17 210 (ЮЗ) 20000 м    8/8 800 м 
[Sc]
-6.8 -12.5 64 -10  1027.3  -1.6  759  315           
12 17.02.17 210 (ЮЗ) 20000 м    10/10 800 м 
[Sc]
-5.3 -11.3 63 -8  1024.7  -2.5  757  312           
15 17.02.17 200 (Ю) 20000 м  {снег}  10/10 570 м 
[Frnb|Ns]
-5.8 -8.4 82 -9  1022  -2.6  755  312    -5.3  0.3     
18 17.02.17 220 (ЮЗ) 20000 м  {снег}  6/6 800 м 
[Sc]
-6.2 -8.5 84 -10  1021.1  -0.9  755  312           
21 17.02.17 230 (ЮЗ) 20000 м    10/10 840 м 
[Sc]
-5.3 -8.6 78 -8  1019.7  -1.4  754  311           
00 18.02.17 230 (ЮЗ) 20000 м    10/10 800 м 
[Sc]
-3.5 -6.3 81 -6  1018.5  -1  753  308           
03 18.02.17 250 (З) 20000 м    10/10 800 м 
[Sc]
-1.9 -4 86 -4  1017.2  -1.2  752  306  -6.3      47  равномерный
сухой снег
100% 
06 18.02.17 260 (З) 10 км    10/10 570 м 
[St]
-0.5 -2.6 86 -2  1017.5  0.3  752  304           
09 18.02.17 240 (ЮЗ) 3{10}  20000 м    10/10 800 м 
[Sc]
+1.5 -1.6 80 1017.3  -0.1  752  302           
12 18.02.17 240 (ЮЗ) 5{10}  20000 м    10/10 800 м 
[Sc]
+1.6 -1.8 78 -1  1016.6  -0.5  752  301           
15 18.02.17 250 (З) 5{10}  20000 м    9/9 800 м 
[Sc]
+1.1 -2.1 79 -2  1017.2  0.4  752  302    +2       
18 18.02.17 250 (З) 10 км    10/10 800 м 
[Sc]
+1 -1.9 81 -1  1017.7  0.5  752  302           
21 18.02.17 240 (ЮЗ) 10 км    10/10 800 м 
[Sc]
+1.2 -1.1 85 -1  1017.8  0.1  752  302           
00 19.02.17 260 (З) 10 км    10/10 800 м 
[Sc]
+1.1 -0.9 86 1018.7  0.9  753  302           
03 19.02.17 270 (З) 10 км    10/10 800 м 
[Sc]
+1.2 -0.8 86 +1  1019.8  754  303  +0.9      46  равномерный
мокрый или
старый снег
100% 
06 19.02.17 270 (З) 4000 м  дымка  10/10 450 м 
[St]
+1.4 +0.3 92 +1  1021.1  1.3  755  303           
09 19.02.17 270 (З) 20000 м    10/10 500 м 
[St]
+2.3 -0.3 83 +2  1021.9  756  302           
12 19.02.17 270 (З) 20000 м    10/10 540 м 
[St]
+2.4 -0.9 79 +1  1021.6  -0.3  755  302           
15 19.02.17 250 (З) 20000 м    10/10 700 м 
[Sc]
+2.2 -1.2 78 +1  1021.3  -0.3  755  302    +2.5       
18 19.02.17 240 (ЮЗ) 20000 м    9/9 750 м 
[Sc]
+2.2 -1.5 76 +1  1020.8  -0.5  755  302           
21 19.02.17 240 (ЮЗ) 20000 м    9/9 750 м 
[Sc]
+1.6 -1.5 80 1020.7  -0.1  755  303           
00 20.02.17 260 (З) 10 км    10/10 720 м 
[Sc]
+1.8 -1.9 76 1019.6  -1.1  754  302           
03 20.02.17 250 (З) 4{10}  10 км    10/10 720 м 
[Sc]
+1 -2.2 79 -1  1019.1  -0.7  753  303  +0.8      42  равномерный
мокрый или
старый снег
100% 
06 20.02.17 250 (З) 5-10{11}  20000 м    8/8 800 м 
[Sc]
-0.8 -3.3 83 -4  1018.4  -0.7  753  305  -1.1         
Время (UTC), дата Ветер
(°,м/с) 
Видим.   Явления Облачность Т
(°С)
Тd
(°С)
f(%) Тe
(°С)
Pmin
(гПа)
dP
(гПа)
Po
(мм)
O2
(г/м3)
Тmin Tmax R s Состояние
почвы

Для получения пояснительной информации подведите курсор к названию столбца.

ПОГОДА в Лиски - архив

Всё, что Вы хотите узнать о погоде в Лиски - удобно и подробно!

Выберите нужную дату (начиная с 1 января 2015* года) и нажмите кнопку "Найти".
Будут отображены архивные сводки погоды по пункту Лиски, начиная с указанной даты.


Отображать данные в формате CSV (для использования в таблицах Excel)


Внимание! Наш архив погоды предназначен исключительно для личного некоммерческого использования в познавательных целях. Если Вам необходимы официальные справки о состоянии погоды (для производственных, юридических, коммерческих и т.п. целей), обращайтесь в органы Росгидромета.

*Примечание: данная дата относится к архиву по метеостанциям СССР (Россия, СНГ, Балтия).
Архив по метеостанциям Зарубежной Европы и Азии (кроме Китая) хранится 10 дней, по другим регионам земного шара (Китай, Африка, Америка, Австралия, Океания) - 1 день.

Лиски - район местоположения метеостанции


Название, широта, долгота, высота метеостанции:
Лиски 51°ш. 39.5°д. 115 м над ур. моря [Российская Федерация]

Дополнительная информация

В oтличие oт бoльшинства пoгoдных сайтoв мы публикуем пoдрoбную метеoинфoрмацию в детальнoм прoфессиoнальнoм фoрмате.

Характеристики температуры и влажнoсти вoздуха измеряются на высoте 2 м в тени вдали oт зданий и деревьев.
Скoрoсть ветра измеряется на высoте 10 м (на урoвне рoста челoвека скoрoсть ветра ниже в 1.5-2 раза). Если метеoстанция нахoдится в гoрoде или в лесу, тo скoрoсть ветра занижена на 2-4 м/с пo сравнению с oткрытым местoм. Скoрoсть ветра над акватoриями крупных рек и oзёр, а также на вершинах хoлмoв на 2-5 м/с выше, чем в oбычных услoвиях.
Атмoсфернoе давление в разных тoчках местнoсти мoжет значительнo oтличаться oт давления на метеoстанции, в зависимoсти oт услoвий рельефа (при пoдъёме на 10 м давление пoнижается примернo на 1 мм рт.ст.).